Location: Mentone
(34.5413°N, 85.5351°W)
Time: 03:23:04
(UTC-06:00)

Centaur AC-72 - Visible Passes

Search period start: 27 February 2017 00:00
Search period end: 09 March 2017 00:00
Orbit: 1118 x 35238 km, 19.4° (Epoch: 26 February)

Date Brightness Start Highest point End Pass type
(mag) Time Alt. Az. Time Alt. Az. Time Alt. Az.
27 Feb 6.9 00:12:43 10° WSW 01:41:52 28° SSW 10:06:21 10° SE visible
27 Feb 6.6 21:11:41 10° WSW 21:29:38 31° S 07:07:46 10° SE visible
28 Feb 5.3 18:18:50 10° WSW 18:25:33 29° S 18:46:55 10° SE visible
01 Mar 9.5 00:39:36 10° SE 02:22:35 13° SE 03:25:39 10° SE visible
02 Mar 7.0 23:57:08 10° SW 01:31:48 28° SSW 09:50:42 10° ESE visible
03 Mar 6.6 20:56:03 10° WSW 21:13:33 30° S 06:52:12 10° SE visible
04 Mar 5.4 18:03:07 10° SW 18:09:39 27° S 18:29:15 10° SE visible
05 Mar 9.4 00:35:13 10° SE 02:09:33 13° SE 03:08:37 10° SE visible
06 Mar 7.0 23:41:34 10° SW 01:24:09 27° SSW 09:35:03 10° ESE visible
07 Mar 6.6 20:40:25 10° SW 20:57:30 29° S 06:36:37 10° ESE visible
08 Mar 5.4 17:47:24 10° SW 17:53:45 26° S 18:11:44 10° SE visible
